Weather History for Dickinson, ND

Change the Weather History Date:

Monday, December 3, 2012

  Actual Average Record
Temperature  
Mean Temperature 38 °F 21 °F  
Max Temperature 51 °F 31 °F 59 °F (1941)
Min Temperature 24 °F 11 °F -23 °F (1905)
Degree Days  
Heating Degree Days 27 44  
Month to date heating degree days 75 130  
Since 1 July heating degree days 1999 2207  
Cooling Degree Days 0 0  
Month to date cooling degree days 0 0  
Year to date cooling degree days 591 419  
Moisture  
Dew Point 24 °F    
Average Humidity 54    
Maximum Humidity 76    
Minimum Humidity 32    
Precipitation  
Precipitation T in 0.00 in 0.12 in (2010)
Month to date precipitation T 0.02  
Year to date precipitation 10.15 15.55  
Sea Level Pressure  
Sea Level Pressure 29.77 in    
Wind  
Wind Speed 18 mph (WNW)    
Max Wind Speed 36 mph    
Max Gust Speed 44 mph    
Visibility 10 miles    
Events      
T = Trace of Precipitation, MM = Missing Value Source: NWS Daily Summary

Daily Weather History Graph

Daily Weather History Graph

Search for Another Location

Airport:

Trip Planner

Search our weather history database for the weather conditions in past years. The results will help you decide how hot, cold, wet, or windy it might be!

Date:

Astronomy

Dec. 03, 2012 Rise Set
Actual Time 7:18 AM MST 4:03 PM MST
Civil Twilight 6:43 AM MST 4:38 PM MST
Nautical Twilight 6:05 AM MST 5:16 PM MST
Astronomical Twilight 5:29 AM MST 5:53 PM MST
Moon 9:03 PM MST (12/3) 10:33 AM MST (12/3)
Length of Visible Light 9h 54m
Length of Day
8h 45m
Waning Gibbous, 77% of the Moon is Illuminated
Dec 3
Waning Gibbous
Dec 6
Last Quarter
Dec 13
New
Dec 19
First Quarter
Dec 28
Full

Hourly Weather History & Observations

Time (MST) Temp. Windchill Dew Point Humidity Pressure Visibility Wind Dir Wind Speed Gust Speed Precip Events Conditions
12:56 AM 48.0 °F - 36.0 °F 63% 29.43 in 10.0 mi WNW 26.5 mph 35.7 mph N/A   Overcast
1:56 AM 45.0 °F 37.1 °F 37.0 °F 74% 29.51 in 10.0 mi WNW 19.6 mph 27.6 mph 0.00 in   Overcast
2:56 AM 45.0 °F 37.4 °F 35.1 °F 68% 29.55 in 10.0 mi WNW 18.4 mph 25.3 mph N/A   Mostly Cloudy
3:56 AM 44.1 °F 36.8 °F 34.0 °F 68% 29.60 in 10.0 mi West 16.1 mph 25.3 mph 0.00 in   Overcast
4:56 AM 42.1 °F 34.5 °F 32.0 °F 67% 29.62 in 10.0 mi West 15.0 mph 23.0 mph N/A   Clear
5:56 AM 41.0 °F 31.9 °F 25.0 °F 53% 29.65 in 10.0 mi West 19.6 mph - N/A   Clear
6:56 AM 39.0 °F 29.9 °F 23.0 °F 53% 29.69 in 10.0 mi West 17.3 mph - N/A   Clear
7:56 AM 37.9 °F 28.2 °F 21.9 °F 53% 29.72 in 10.0 mi West 18.4 mph 23.0 mph N/A   Clear
8:56 AM 42.1 °F 32.3 °F 21.9 °F 45% 29.73 in 10.0 mi West 24.2 mph 34.5 mph N/A   Clear
9:56 AM 46.0 °F 38.3 °F 21.9 °F 39% 29.75 in 10.0 mi West 20.7 mph 29.9 mph N/A   Clear
10:56 AM 48.0 °F - 23.0 °F 37% 29.73 in 10.0 mi WNW 26.5 mph 39.1 mph N/A   Clear
12:56 PM 50.0 °F - 21.9 °F 33% 29.76 in 10.0 mi WNW 31.1 mph 42.6 mph N/A   Clear
1:56 PM 50.0 °F - 21.9 °F 33% 29.77 in 10.0 mi WNW 34.5 mph 43.7 mph N/A   Partly Cloudy
2:56 PM 48.9 °F - 21.9 °F 35% 29.79 in 10.0 mi West 24.2 mph 32.2 mph N/A   Clear
3:56 PM 46.9 °F - 21.9 °F 37% 29.81 in 10.0 mi WNW 16.1 mph 26.5 mph N/A   Partly Cloudy
4:56 PM 37.0 °F 29.8 °F 21.0 °F 52% 29.87 in 10.0 mi WNW 10.4 mph - N/A   Clear
5:56 PM 36.0 °F 28.5 °F 21.9 °F 57% 29.89 in 10.0 mi WNW 10.4 mph - N/A   Mostly Cloudy
6:56 PM 28.9 °F 21.9 °F 19.0 °F 67% 29.94 in 10.0 mi West 6.9 mph - N/A   Partly Cloudy
7:56 PM 28.9 °F 21.1 °F 21.0 °F 72% 29.96 in 10.0 mi West 8.1 mph - N/A   Scattered Clouds
8:56 PM 25.0 °F 20.7 °F 18.0 °F 75% 29.99 in 10.0 mi East 3.5 mph - N/A   Clear
9:56 PM 30.0 °F 23.2 °F 19.9 °F 66% 29.98 in 10.0 mi West 6.9 mph - N/A   Clear
10:56 PM 32.0 °F 24.2 °F 21.0 °F 64% 30.00 in 10.0 mi WNW 9.2 mph - N/A   Clear
11:56 PM 30.0 °F 21.7 °F 21.0 °F 69% 30.02 in 10.0 mi NW 9.2 mph - N/A   Clear